{"data":{"norad_id":53449,"intl_designator":"2022-098F","name":"DONGPO 05","alt_names":[],"object_type":"PAYLOAD","status":"ACTIVE","operator":null,"country":"PRC","launch_date":"2022-08-10","launch_site_code":"TAISC","launch_vehicle":null,"mission":null,"orbit_class":"UNKNOWN","rcs_meters":null,"size_class":null,"mass_kg":null,"dimensions":null,"purposes":[],"wikipedia_slug":null,"has_3d_model":false,"image_url":null,"decayed_at":null,"tle_current":{"epoch":"2026-08-17T16:22:11.192736Z","epoch_age_seconds":3065464,"freshness":"OLD","line1":"1 53449U 22098F   26229.68207399  .03092900  25689-5  80791-3 0  9997","line2":"2 53449  97.5440   9.1804 0012001 275.1671  84.8253 16.28409381224663","mean_motion":16.28409381,"eccentricity":0.0012001,"inclination_deg":97.544,"raan_deg":9.1804,"arg_perigee_deg":275.1671,"mean_anomaly_deg":84.8253,"bstar":0.00080791,"rev_number":22466,"period_min":88.4298516578,"perigee_km":188.92728742446,"apogee_km":204.70849415333,"semimajor_km":6574.9548907889,"source":"CELESTRAK","updated_at":"2026-08-22T09:00:13.841701Z"}}}